This is the latest recevied weather packets stored in our database for station/object DC1MPP-9. If no packets are shown the sender has not sent any weather packets the latest 10 day(s).
| Time | Temp. | Humidity | Pressure | Rain* | Wind** | Luminosity | Snow |
|---|---|---|---|---|---|---|---|
| 1777290152 | 20° C | 30% | 963 hPa | - | - | - | - |
| 1777289911 | 20.56° C | 32% | 963 hPa | - | - | - | - |
| 1777289670 | 21.67° C | 33% | 963 hPa | - | - | - | - |
| 1777289429 | 21.67° C | 31% | 963 hPa | - | - | - | - |
| 1777289188 | 21.11° C | 32% | 963 hPa | - | - | - | - |
| 1777288947 | 20° C | 32% | 963 hPa | - | - | - | - |
| 1777288706 | 20° C | 29% | 963 hPa | - | - | - | - |
| 1777288465 | 20° C | 31% | 963 hPa | - | - | - | - |
| 1777288223 | 19.44° C | 30% | 963 hPa | - | - | - | - |
| 1777287983 | 20° C | 31% | 963 hPa | - | - | - | - |
| 1777287741 | 21.11° C | 28% | 963 hPa | - | - | - | - |
| 1777287500 | 21.11° C | 33% | 963 hPa | - | - | - | - |
| 1777287259 | 20.56° C | 33% | 963 hPa | - | - | - | - |
| 1777287018 | 20.56° C | 30% | 963 hPa | - | - | - | - |
| 1777286777 | 20° C | 31% | 963 hPa | - | - | - | - |
| 1777286536 | 20° C | 33% | 963 hPa | - | - | - | - |
| 1777286295 | 20° C | 30% | 963 hPa | - | - | - | - |
| 1777286054 | 20° C | 30% | 963 hPa | - | - | - | - |
| 1777285813 | 19.44° C | 33% | 963 hPa | - | - | - | - |
| 1777285572 | 20° C | 34% | 963 hPa | - | - | - | - |
| 1777285331 | 19.44° C | 32% | 963 hPa | - | - | - | - |
| 1777285090 | 18.89° C | 33% | 963 hPa | - | - | - | - |
| 1777284849 | 19.44° C | 31% | 963 hPa | - | - | - | - |
| 1777284608 | 18.89° C | 32% | 964 hPa | - | - | - | - |
| 1777284367 | 18.89° C | 33% | 964 hPa | - | - | - | - |
* Rain since midnight (hover to see other rain measurements)
** Current wind speed in m/s (hover to see current wind gust speed)